sat.trackr.live / text

‹ back to catalog

STARLINK-4048

NORAD 52839 · 2022-062K

PAYLOAD ACTIVE UNKNOWN

§ Identity

Operator
Country
US
Launch date
2022-06-17
Launch site
AFETR
Launch vehicle
Mass (kg)
RCS (m²)

Purposes: comms

External: N2YO · Heavens-Above · Gunter

§ Orbital elements

Epoch: 2026-09-19T11:28:08.621184Z

Period
94.01 min
Inclination
53.1597°
Eccentricity
0.0001262
Mean motion
15.31702764 rev/d
Perigee alt
469.9 km
Apogee alt
471.6 km
Semi-major
6,848.9 km
B*
3.9402e-5
RAAN
233.5656°
Arg perigee
73.8006°
Mean anomaly
286.3135°
Rev number
23,518

§ Raw data

STARLINK-40481 52839U 22062K   26262.47787756  .00000858  00000+0  39402-4 0  99902 52839  53.1597 233.5656 0001262  73.8006 286.3135 15.31702764235187

JSON: /api/v1/satellites/52839 · /tle

For live sub-satellite position, see the globe view (requires WebGL).

§ Visibility from observer

Set your observer location to see the next 7 days of passes ≥ 10°. The values pass through the URL so the page stays shareable.

No JS? Fill the form by hand. The geolocation button needs JavaScript.